Location: Navalespino
(40.5894°N, 4.2660°W)
Time: 06:41:17
(UTC+00:00)

Cosmos 2100 Rocket - Pass Details

Date: 18 April 2024
Orbit: 955 x 1000 km, 82.9° (Epoch: 22 May)

Event Time Altitude Azimuth Distance (km) Brightness Sun altitude
Rises 21:46:01 0° 357° (N) 3,726 7.8 -27.6°
Reaches altitude 10° 21:48:39 10° 3° (N) 2,768 6.9 -28.0°
Enters shadow 21:54:17 49° 62° (ENE) 1,254 4.4 -28.7°
